Regional Weather Roundup
Issued by NWS Upton, NY

Current Version | Previous Version | Graphics & Text | Print | Product List | Glossary Off
Versions: 1 2 3 4 5 6 7 8 9 10 11 12 13 14 15 16 17 18 19 20 21 22 23 24 25 26 27 28 29 30 31 32 33 34 35 36 37 38 39 40 41 42 43 44 45 46 47 48 49 50

000
ASUS41 KOKX 250508
RWROKX

REGIONAL WEATHER ROUNDUP
NATIONAL WEATHER SERVICE NEW YORK NY
100 AM EDT SAT MAR 25 2017

NOTE: "FAIR" INDICATES FEW OR NO CLOUDS BELOW 12,000 FEET WITH NO
SIGNIFICANT WEATHER AND/OR OBSTRUCTIONS TO VISIBILITY.

NYZ071-072-176-178-NJZ106-104-250600-
NEW YORK CITY METRO AREA

CITY           SKY/WX    TMP DP  RH WIND       PRES   REMARKS
Central Park   PTCLDY    53  33  46 W12       30.13F
Wall St Helipt PTCLDY    52  34  50 W9        30.13F
LaGuardia APRT MOCLDY    54  33  45 SW9       30.10F
Kennedy INTL   MOCLDY    44  40  85 S9        30.13F
Breezy Point     N/A     43 N/A N/A SE5         N/A
Newark/Liberty CLOUDY    48  33  56 SW5       30.11F
Teterboro      CLOUDY    47  34  60 S8        30.10F
$$

NYZ177-179-078>081-250600-
LONG ISLAND NEW YORK

CITY           SKY/WX    TMP DP  RH WIND       PRES   REMARKS
Jones Beach      N/A     43 N/A N/A S9          N/A
Matinecock PT  NOT AVBL
Farmingdale    CLOUDY    45  38  76 SW12      30.11F
MacArthur/ISP  PTCLDY    46  38  73 SW10      30.10F
Shirley        CLOUDY    44  39  82 S10       30.11F
Westhampton    CLOUDY    45  38  76 SW12G18   30.11F
East Hampton     N/A     43  37  79 SW3       30.11S
Montauk          N/A     46  38  73 SW13G21   30.11F
$$

NYZ052-065-067-250600-
HUDSON VALLEY

CITY           SKY/WX    TMP DP  RH WIND       PRES   REMARKS
White Plains   CLOUDY    50  31  48 W5        30.08F
Newburgh       PTCLDY    45  36  70 CALM      30.09F
Montgomery     CLOUDY    34  31  88 CALM      30.07F
Poughkeepsie   CLOUDY    34  30  85 CALM      30.08F
Albany         CLOUDY    40  33  76 CALM      30.09S
$$

NJZ001-105-106-008-010-013-015-019>022-104-250600-
NEW JERSEY

CITY           SKY/WX    TMP DP  RH WIND       PRES   REMARKS
Newark/Liberty CLOUDY    48  33  56 SW5       30.11F
Teterboro      CLOUDY    47  34  60 S8        30.10F
Caldwell       CLOUDY    48  33  56 SW6       30.10F
Somerville     MOCLDY    41  33  73 CALM      30.11S
Linden         NOT AVBL
Sussex         CLOUDY    39  34  82 SW3       30.08F
Andover          N/A     43  34  70 S6        30.09F
Trenton        MOCLDY    47  33  58 SW5       30.14F
Millville      PTCLDY    54  45  71 SW5       30.17S
Atlantic City  PTCLDY    55  43  63 SW6       30.18R
Wrightstown    CLOUDY    42  34  72 S5        30.12F
Toms River     CLOUDY    38  31  76 S5        30.16F WCI  34
Belmar         CLOUDY    48  34  58 SW8       30.14F
$$

PAZ047>061-062-071-250600-
EASTERN PENNSYLVANIA

CITY           SKY/WX    TMP DP  RH WIND       PRES   REMARKS
Philadelphia   CLOUDY    47  35  63 S5        30.16F
Allentown      MOCLDY    42  34  73 NW3       30.12F
Scranton       CLOUDY    47  39  74 S7        30.06F
$$

CTZ002-004>006-009-010-012-RIZ004-006-007-MAZ004-011-015-250600-
SOUTHERN NEW ENGLAND
 IN CT

CITY           SKY/WX    TMP DP  RH WIND       PRES   REMARKS
Bradley INTL   CLOUDY    42  32  67 S7        30.07S
Hartford       CLOUDY    41  33  73 S6        30.09F
Danbury        CLOUDY    45  33  63 W3        30.08F
Wtrbury/Oxford CLOUDY    43  30  61 SW3       30.08F
Bridgeport     CLOUDY    46  36  68 W3        30.10S
Meriden        PTCLDY    41  34  76 S7        30.08F
New Haven      CLOUDY    38  34  85 CALM      30.10F
Chester        NOT AVBL
Groton         CLOUDY    42  36  79 S3        30.10F
Wilimantic     PTCLDY    40  32  73 VRB3      30.08F

 IN RI

CITY           SKY/WX    TMP DP  RH WIND       PRES   REMARKS
Providence     PTCLDY    46  33  60 SW5       30.08F
Block Island   MOCLDY    43  39  86 SW17      30.11F
Westerly       CLOUDY    43  38  82 SW5       30.11F
 IN MA

CITY           SKY/WX    TMP DP  RH WIND       PRES   REMARKS
Boston         MOCLDY    45  32  60 SW8       30.06F
Worcester      CLOUDY    42  30  62 SW12      30.03F
Westfield      CLOUDY    35  30  82 CALM      30.06S
Provincetown   CLOUDY    43  35  73 SW9       30.08F
Nantucket      PTCLDY    42  38  85 SW20      30.10F
$$

ANZ330-335-338-340-345-350-353-355-250600-
COASTAL MARINE OBSERVATIONS


STATION/POSITION TIME  SKY/WX   TEMP    WIND        PRES    VSBY  WAVE
                                AIR SEA DIR/SP/G                  HT/PER
                 (UTC)          (F)     (DEG/KT/KT) (MB)    (MI)  (FT/S)
NY HARB ENTRANCE 0350            44 42  200/ 16/ 17 1020.3          4/ 6
20 S FIRE ISLAND 0450            44 40  220/ 14/ 16 1020.6          6/ 7
GREAT SOUTH BAY  NOT AVBL
23 SSW MONTAUK P 0350            46 43              1021.2          7/ 7
15 E BARNEGAT LI 0430               42                N/A           5/ 6
HUDSON CANYON    0350            50 45  220/ 17/ 19 1022.9          8/ 7
KINGS POINT      0442            48 39              1019.2
EXECUTION ROCKS  NOT AVBL
CENTRAL LI SOUND 0430            41     190/  6/  8   N/A           1
EASTERN LI SOUND NOT AVBL
ROBBINS REEF     0442            52     230/  8/ 10 1020.1
$$


>>>>>>>>>>>>>>>>>>>>>>>>>>>> KEY <<<<<<<<<<<<<<<<<<<<<<<<<<<
>                                                          <
>     SKY/WX - Sky Condition/Present Weather               <
>     TMP    - Temperature in Fahrenheit                   <
>     DP     - Dew Point in Fahrenheit                     <
>     RH     - Relative Humidity in Percent                <
>     WIND   - Direction (from) and Speed in MPH           <
>     PRES   - Mean Sea Level Pressure (inches of Hg)      <
>     WCI    - Wind Chill Index                            <
>     VSB    - VISIBILITY IN MILES                         <
>     HX     - HEAT INDEX                                  <
>     TC     - TEMPERATURE IN CELSIUS                      <
>     VRB    - VARIABLE WIND DIRECTION                     <
>                                                          <
>>>>>>>>>>>>>>>>>>>>>>>>>>>> KEY <<<<<<<<<<<<<<<<<<<<<<<<<<<



USA.gov is the U.S. government's official web portal to all federal, state and local government web resources and services.